Time,TemperatureF,DewpointF,PressureIn,WindDirection,WindDirectionDegrees,WindSpeedMPH,WindSpeedGustMPH,Humidity,HourlyPrecipIn,Conditions,Clouds,dailyrainin,SolarRadiationWatts/m^2,SoftwareType,DateUTC
2013-12-03 00:01:00,56.7,35.1,29.97,NE,46,2.0,2.0,44,0.00,,,0.00,0.0,meteohub,2013-12-03 08:01:00,
2013-12-03 00:06:00,56.8,37.9,29.97,NE,46,0.0,3.0,49,0.00,,,0.00,0.0,meteohub,2013-12-03 08:06:00,
2013-12-03 00:11:00,56.7,36.7,29.96,ENE,74,2.0,4.0,47,0.00,,,0.00,0.0,meteohub,2013-12-03 08:11:00,
2013-12-03 00:16:00,56.8,36.9,29.96,South,180,0.0,4.0,47,0.00,,,0.00,0.0,meteohub,2013-12-03 08:16:00,
2013-12-03 00:22:00,57.0,37.0,29.96,South,180,0.0,4.0,47,0.00,,,0.00,0.0,meteohub,2013-12-03 08:22:00,
2013-12-03 00:27:00,57.2,37.8,29.96,South,191,3.0,6.0,48,0.00,,,0.00,0.0,meteohub,2013-12-03 08:27:00,
2013-12-03 00:32:00,57.4,39.4,29.96,SE,138,0.0,6.0,51,0.00,,,0.00,0.0,meteohub,2013-12-03 08:32:00,
2013-12-03 00:37:00,57.7,43.0,29.96,SE,138,0.0,6.0,58,0.00,,,0.00,0.0,meteohub,2013-12-03 08:37:00,
2013-12-03 00:42:00,57.9,45.0,29.96,East,88,1.0,3.0,62,0.00,,,0.00,0.0,meteohub,2013-12-03 08:42:00,
2013-12-03 00:47:00,57.7,41.7,29.96,East,84,0.0,3.0,55,0.00,,,0.00,0.0,meteohub,2013-12-03 08:47:00,
2013-12-03 00:52:00,57.4,38.3,29.96,East,86,1.0,3.0,49,0.00,,,0.00,0.0,meteohub,2013-12-03 08:52:00,
2013-12-03 00:57:00,57.2,39.7,29.96,East,86,0.0,3.0,52,0.00,,,0.00,0.0,meteohub,2013-12-03 08:57:00,
2013-12-03 01:02:00,57.0,39.6,29.95,NE,36,2.0,5.0,52,0.00,,,0.00,0.0,meteohub,2013-12-03 09:02:00,
2013-12-03 01:07:00,56.8,36.9,29.95,East,80,2.0,5.0,47,0.00,,,0.00,0.0,meteohub,2013-12-03 09:07:00,
2013-12-03 01:12:00,56.5,36.0,29.95,East,80,2.0,5.0,46,0.00,,,0.00,0.0,meteohub,2013-12-03 09:12:00,
2013-12-03 01:17:00,56.3,35.8,29.94,NE,53,3.0,5.0,46,0.00,,,0.00,0.0,meteohub,2013-12-03 09:17:00,
2013-12-03 01:22:00,56.1,35.6,29.94,NE,55,3.0,5.0,46,0.00,,,0.00,0.0,meteohub,2013-12-03 09:22:00,
2013-12-03 01:27:00,55.9,34.9,29.94,NE,55,0.0,5.0,45,0.00,,,0.00,0.0,meteohub,2013-12-03 09:27:00,
2013-12-03 01:32:00,55.9,34.9,29.94,NE,55,0.0,5.0,45,0.00,,,0.00,0.0,meteohub,2013-12-03 09:32:00,
2013-12-03 01:37:00,55.8,35.2,29.94,NE,55,2.0,5.0,46,0.00,,,0.00,0.0,meteohub,2013-12-03 09:37:00,
2013-12-03 01:42:00,55.6,36.1,29.95,ENE,57,1.0,2.0,48,0.00,,,0.00,0.0,meteohub,2013-12-03 09:42:00,
2013-12-03 01:47:00,55.6,39.7,29.95,East,98,3.0,4.0,55,0.00,,,0.00,0.0,meteohub,2013-12-03 09:47:00,
2013-12-03 01:52:00,55.9,44.4,29.95,ESE,106,2.0,5.0,65,0.00,,,0.00,0.0,meteohub,2013-12-03 09:52:00,
2013-12-03 01:57:00,56.3,46.2,29.95,SE,146,2.0,5.0,69,0.00,,,0.00,0.0,meteohub,2013-12-03 09:57:00,
2013-12-03 02:02:00,56.8,48.2,29.95,SSE,167,2.0,6.0,73,0.00,,,0.00,0.0,meteohub,2013-12-03 10:02:00,
2013-12-03 02:07:00,57.4,49.5,29.94,SSE,148,4.0,8.0,75,0.00,,,0.00,0.0,meteohub,2013-12-03 10:07:00,
2013-12-03 02:12:00,57.4,50.2,29.94,SSE,153,2.0,8.0,77,0.00,,,0.00,0.0,meteohub,2013-12-03 10:12:00,
2013-12-03 02:17:00,57.2,50.4,29.95,SE,146,0.0,8.0,78,0.00,,,0.00,0.0,meteohub,2013-12-03 10:17:00,
2013-12-03 02:22:00,56.7,49.1,29.94,SE,132,3.0,6.0,76,0.00,,,0.00,0.0,meteohub,2013-12-03 10:22:00,
2013-12-03 02:27:00,56.1,48.9,29.94,East,86,0.0,6.0,77,0.00,,,0.00,0.0,meteohub,2013-12-03 10:27:00,
2013-12-03 02:32:00,55.6,47.5,29.94,ESE,107,0.0,6.0,74,0.00,,,0.00,0.0,meteohub,2013-12-03 10:32:00,
2013-12-03 02:37:00,55.0,46.2,29.94,ENE,76,4.0,6.0,72,0.00,,,0.00,0.0,meteohub,2013-12-03 10:37:00,
2013-12-03 02:42:00,54.9,45.7,29.94,ENE,74,3.0,6.0,71,0.00,,,0.00,0.0,meteohub,2013-12-03 10:42:00,
2013-12-03 02:47:00,54.7,45.1,29.94,ENE,73,2.0,6.0,70,0.00,,,0.00,0.0,meteohub,2013-12-03 10:47:00,
2013-12-03 02:52:00,54.3,44.4,29.94,ENE,73,3.0,5.0,69,0.00,,,0.00,0.0,meteohub,2013-12-03 10:52:00,
2013-12-03 02:57:00,54.3,44.8,29.94,East,82,3.0,5.0,70,0.00,,,0.00,0.0,meteohub,2013-12-03 10:57:00,
2013-12-03 03:02:00,54.1,44.2,29.94,ENE,71,3.0,6.0,69,0.00,,,0.00,0.0,meteohub,2013-12-03 11:02:00,
2013-12-03 03:07:00,54.0,42.8,29.94,ENE,70,0.0,6.0,66,0.00,,,0.00,0.0,meteohub,2013-12-03 11:07:00,
2013-12-03 03:12:00,53.4,41.5,29.94,ENE,70,0.0,6.0,64,0.00,,,0.00,0.0,meteohub,2013-12-03 11:12:00,
2013-12-03 03:17:00,53.2,41.0,29.93,ENE,71,1.0,4.0,63,0.00,,,0.00,0.0,meteohub,2013-12-03 11:17:00,
2013-12-03 03:22:00,53.2,41.0,29.93,ENE,63,3.0,4.0,63,0.00,,,0.00,0.0,meteohub,2013-12-03 11:22:00,
2013-12-03 03:27:00,52.9,40.3,29.93,ENE,78,0.0,5.0,62,0.00,,,0.00,0.0,meteohub,2013-12-03 11:27:00,
2013-12-03 03:32:00,52.9,40.3,29.93,East,98,2.0,5.0,62,0.00,,,0.00,0.0,meteohub,2013-12-03 11:32:00,
2013-12-03 03:37:00,52.9,40.6,29.93,ESE,112,0.0,5.0,63,0.00,,,0.00,0.0,meteohub,2013-12-03 11:37:00,
2013-12-03 03:42:00,52.7,40.5,29.92,ESE,113,4.0,5.0,63,0.00,,,0.00,0.0,meteohub,2013-12-03 11:42:00,
2013-12-03 03:47:00,53.4,44.2,29.92,ESE,111,4.0,9.0,71,0.00,,,0.00,0.0,meteohub,2013-12-03 11:47:00,
2013-12-03 03:52:00,54.1,46.4,29.93,SSE,152,2.0,9.0,75,0.00,,,0.00,0.0,meteohub,2013-12-03 11:52:00,
2013-12-03 03:57:00,54.9,48.2,29.93,ESE,119,5.0,9.0,78,0.00,,,0.00,0.0,meteohub,2013-12-03 11:57:00,
2013-12-03 04:02:00,54.9,48.6,29.93,East,98,2.0,9.0,79,0.00,,,0.00,0.0,meteohub,2013-12-03 12:02:00,
2013-12-03 04:07:00,54.9,48.7,29.93,ESE,112,1.0,9.0,80,0.00,,,0.00,0.0,meteohub,2013-12-03 12:07:00,
2013-12-03 04:12:00,55.0,49.6,29.92,SE,132,4.0,9.0,82,0.00,,,0.00,0.0,meteohub,2013-12-03 12:12:00,
2013-12-03 04:17:00,55.0,49.6,29.92,East,79,2.0,5.0,82,0.00,,,0.00,0.0,meteohub,2013-12-03 12:17:00,
2013-12-03 04:22:00,54.3,48.2,29.92,East,86,2.0,5.0,80,0.00,,,0.00,0.0,meteohub,2013-12-03 12:22:00,
2013-12-03 04:27:00,53.8,47.5,29.92,East,84,5.0,5.0,79,0.00,,,0.00,0.0,meteohub,2013-12-03 12:27:00,
2013-12-03 04:32:00,53.2,46.6,29.91,East,79,2.0,5.0,78,0.00,,,0.00,0.0,meteohub,2013-12-03 12:32:00,
2013-12-03 04:37:00,52.7,45.7,29.91,ENE,78,2.0,5.0,77,0.00,,,0.00,0.0,meteohub,2013-12-03 12:37:00,
2013-12-03 04:42:00,52.3,44.6,29.91,East,84,0.0,7.0,75,0.00,,,0.00,0.0,meteohub,2013-12-03 12:42:00,
2013-12-03 04:47:00,52.2,44.4,29.91,East,87,1.0,7.0,75,0.00,,,0.00,0.0,meteohub,2013-12-03 12:47:00,
2013-12-03 04:52:00,52.0,43.5,29.91,East,84,3.0,7.0,73,0.00,,,0.00,0.0,meteohub,2013-12-03 12:52:00,
2013-12-03 04:57:00,51.6,42.4,29.91,East,84,2.0,5.0,71,0.00,,,0.00,0.0,meteohub,2013-12-03 12:57:00,
2013-12-03 05:02:00,51.8,42.6,29.91,East,86,2.0,5.0,71,0.00,,,0.00,0.0,meteohub,2013-12-03 13:02:00,
2013-12-03 05:07:00,51.8,42.6,29.91,ENE,72,4.0,5.0,71,0.00,,,0.00,0.0,meteohub,2013-12-03 13:07:00,
2013-12-03 05:12:00,52.0,43.9,29.91,East,88,2.0,7.0,74,0.00,,,0.00,0.0,meteohub,2013-12-03 13:12:00,
2013-12-03 05:17:00,52.0,43.9,29.91,ENE,74,4.0,7.0,74,0.00,,,0.00,0.0,meteohub,2013-12-03 13:17:00,
2013-12-03 05:22:00,51.8,43.7,29.90,East,80,6.0,7.0,74,0.00,,,0.00,0.0,meteohub,2013-12-03 13:22:00,
2013-12-03 05:27:00,51.8,43.7,29.90,ENE,76,2.0,8.0,74,0.00,,,0.00,0.0,meteohub,2013-12-03 13:27:00,
2013-12-03 05:32:00,52.0,44.2,29.90,East,80,1.0,8.0,75,0.00,,,0.00,0.0,meteohub,2013-12-03 13:32:00,
2013-12-03 05:37:00,52.0,44.6,29.90,East,80,2.0,8.0,76,0.00,,,0.00,0.0,meteohub,2013-12-03 13:37:00,
2013-12-03 05:42:00,52.0,44.6,29.90,East,85,0.0,7.0,76,0.00,,,0.00,0.0,meteohub,2013-12-03 13:42:00,
2013-12-03 05:47:00,52.0,45.0,29.90,ENE,74,4.0,6.0,77,0.00,,,0.00,0.0,meteohub,2013-12-03 13:47:00,
2013-12-03 05:52:00,52.0,45.3,29.91,ESE,111,0.0,6.0,78,0.00,,,0.00,0.0,meteohub,2013-12-03 13:52:00,
2013-12-03 05:57:00,52.5,46.9,29.91,ESE,109,1.0,5.0,81,0.00,,,0.00,0.0,meteohub,2013-12-03 13:57:00,
2013-12-03 06:02:00,53.2,48.6,29.91,SSE,159,3.0,5.0,84,0.00,,,0.00,0.0,meteohub,2013-12-03 14:02:00,
2013-12-03 06:07:00,54.0,49.6,29.91,SE,126,3.0,5.0,85,0.00,,,0.00,0.0,meteohub,2013-12-03 14:07:00,
2013-12-03 06:12:00,54.1,50.0,29.91,ESE,114,0.0,4.0,86,0.00,,,0.00,0.0,meteohub,2013-12-03 14:12:00,
2013-12-03 06:17:00,54.5,50.7,29.91,ESE,105,1.0,4.0,87,0.00,,,0.00,0.0,meteohub,2013-12-03 14:17:00,
2013-12-03 06:22:00,54.7,50.9,29.91,East,98,1.0,4.0,87,0.00,,,0.00,0.0,meteohub,2013-12-03 14:22:00,
2013-12-03 06:27:00,54.7,51.3,29.91,East,94,2.0,3.0,88,0.00,,,0.00,0.0,meteohub,2013-12-03 14:27:00,
2013-12-03 06:32:00,54.7,51.3,29.91,ENE,75,3.0,4.0,88,0.00,,,0.00,0.0,meteohub,2013-12-03 14:32:00,
2013-12-03 06:37:00,54.5,51.1,29.91,ENE,75,1.0,4.0,88,0.00,,,0.00,0.0,meteohub,2013-12-03 14:37:00,
2013-12-03 06:42:00,54.3,50.9,29.91,ENE,75,0.0,4.0,88,0.00,,,0.00,0.0,meteohub,2013-12-03 14:42:00,
2013-12-03 06:47:00,54.3,50.9,29.91,NNE,25,1.0,3.0,88,0.00,,,0.00,0.0,meteohub,2013-12-03 14:47:00,
2013-12-03 06:52:00,54.3,50.9,29.91,NNE,25,1.0,4.0,88,0.00,,,0.00,5.0,meteohub,2013-12-03 14:52:00,
2013-12-03 06:57:00,54.1,50.7,29.91,NNE,25,0.0,4.0,88,0.00,,,0.00,5.0,meteohub,2013-12-03 14:57:00,
2013-12-03 07:02:00,54.0,50.5,29.91,NNE,25,0.0,4.0,88,0.00,,,0.00,12.0,meteohub,2013-12-03 15:02:00,
2013-12-03 07:07:00,53.6,50.2,29.91,NNE,25,1.0,3.0,88,0.00,,,0.00,18.0,meteohub,2013-12-03 15:07:00,
2013-12-03 07:12:00,53.4,50.0,29.91,NNE,27,2.0,2.0,88,0.00,,,0.00,23.0,meteohub,2013-12-03 15:12:00,
2013-12-03 07:17:00,53.1,49.6,29.92,NNE,28,1.0,4.0,88,0.00,,,0.00,32.0,meteohub,2013-12-03 15:17:00,
2013-12-03 07:22:00,53.1,49.6,29.92,NNE,28,0.0,4.0,88,0.00,,,0.00,33.0,meteohub,2013-12-03 15:22:00,
2013-12-03 07:27:00,53.1,49.6,29.93,NNE,28,0.0,4.0,88,0.00,,,0.00,37.0,meteohub,2013-12-03 15:27:00,
2013-12-03 07:32:00,53.2,50.0,29.93,NNE,28,0.0,2.0,89,0.00,,,0.00,54.0,meteohub,2013-12-03 15:32:00,
2013-12-03 07:37:00,53.4,50.2,29.93,NNE,28,0.0,1.0,89,0.00,,,0.00,47.0,meteohub,2013-12-03 15:37:00,
2013-12-03 07:42:00,53.6,50.7,29.94,NNE,28,2.0,2.0,90,0.00,,,0.00,54.0,meteohub,2013-12-03 15:42:00,
2013-12-03 07:47:00,53.8,50.9,29.94,NNE,28,0.0,3.0,90,0.00,,,0.00,72.0,meteohub,2013-12-03 15:47:00,
2013-12-03 07:52:00,54.0,51.1,29.94,NNE,29,0.0,3.0,90,0.00,,,0.00,93.0,meteohub,2013-12-03 15:52:00,
2013-12-03 07:57:00,54.1,51.3,29.94,SSW,210,2.0,5.0,90,0.00,,,0.00,69.0,meteohub,2013-12-03 15:57:00,
2013-12-03 08:02:00,54.1,50.9,29.94,South,182,1.0,6.0,89,0.00,,,0.00,33.0,meteohub,2013-12-03 16:02:00,
2013-12-03 08:07:00,54.1,50.7,29.94,SSE,150,0.0,6.0,88,0.00,,,0.00,44.0,meteohub,2013-12-03 16:07:00,
2013-12-03 08:12:00,54.1,50.7,29.94,SE,137,0.0,6.0,88,0.00,,,0.00,76.0,meteohub,2013-12-03 16:12:00,
2013-12-03 08:17:00,54.3,50.9,29.94,SE,132,3.0,4.0,88,0.00,,,0.00,81.0,meteohub,2013-12-03 16:17:00,
2013-12-03 08:22:00,55.0,51.6,29.94,South,178,1.0,4.0,88,0.00,,,0.00,84.0,meteohub,2013-12-03 16:22:00,
2013-12-03 08:27:00,55.8,52.3,29.93,SE,145,1.0,5.0,88,0.00,,,0.00,250.0,meteohub,2013-12-03 16:27:00,
2013-12-03 08:32:00,56.3,52.9,29.93,SSE,165,1.0,5.0,88,0.00,,,0.00,174.0,meteohub,2013-12-03 16:32:00,
2013-12-03 08:37:00,56.7,53.1,29.93,SSW,192,3.0,7.0,88,0.00,,,0.00,241.0,meteohub,2013-12-03 16:37:00,
2013-12-03 08:42:00,57.0,53.2,29.93,South,185,4.0,8.0,87,0.00,,,0.00,127.0,meteohub,2013-12-03 16:42:00,
2013-12-03 08:47:00,57.6,53.4,29.93,SSE,147,3.0,8.0,86,0.00,,,0.00,271.0,meteohub,2013-12-03 16:47:00,
2013-12-03 08:52:00,57.9,53.1,29.93,SSE,159,2.0,8.0,84,0.00,,,0.00,264.0,meteohub,2013-12-03 16:52:00,
2013-12-03 08:57:00,58.5,53.2,29.94,South,171,5.0,8.0,83,0.00,,,0.00,313.0,meteohub,2013-12-03 16:57:00,
2013-12-03 09:02:00,58.8,53.1,29.93,South,184,8.0,8.0,81,0.00,,,0.00,320.0,meteohub,2013-12-03 17:02:00,
2013-12-03 09:07:00,59.4,53.6,29.94,South,174,2.0,10.0,81,0.00,,,0.00,373.0,meteohub,2013-12-03 17:07:00,
2013-12-03 09:12:00,59.4,53.2,29.94,South,182,5.0,10.0,80,0.00,,,0.00,434.0,meteohub,2013-12-03 17:12:00,
2013-12-03 09:17:00,59.5,53.4,29.94,SE,136,4.0,10.0,80,0.00,,,0.00,350.0,meteohub,2013-12-03 17:17:00,
2013-12-03 09:22:00,59.7,53.6,29.94,SSE,157,6.0,10.0,80,0.00,,,0.00,394.0,meteohub,2013-12-03 17:22:00,
2013-12-03 09:27:00,60.3,54.1,29.94,South,181,6.0,10.0,80,0.00,,,0.00,499.0,meteohub,2013-12-03 17:27:00,
2013-12-03 09:32:00,60.4,54.0,29.94,SSE,165,4.0,10.0,79,0.00,,,0.00,461.0,meteohub,2013-12-03 17:32:00,
2013-12-03 09:37:00,60.4,54.0,29.94,South,181,6.0,12.0,79,0.00,,,0.00,445.0,meteohub,2013-12-03 17:37:00,
2013-12-03 09:42:00,60.4,54.0,29.94,South,181,7.0,12.0,79,0.00,,,0.00,413.0,meteohub,2013-12-03 17:42:00,
2013-12-03 09:47:00,61.0,54.1,29.94,South,186,4.0,12.0,78,0.00,,,0.00,425.0,meteohub,2013-12-03 17:47:00,
2013-12-03 09:52:00,61.3,54.1,29.94,SSE,160,1.0,12.0,77,0.00,,,0.00,425.0,meteohub,2013-12-03 17:52:00,
2013-12-03 09:57:00,61.5,54.3,29.93,SSE,168,7.0,12.0,77,0.00,,,0.00,446.0,meteohub,2013-12-03 17:57:00,
2013-12-03 10:02:00,61.5,54.3,29.93,South,174,8.0,12.0,77,0.00,,,0.00,457.0,meteohub,2013-12-03 18:02:00,
2013-12-03 10:07:00,62.1,54.7,29.94,South,187,12.0,14.0,77,0.00,,,0.00,466.0,meteohub,2013-12-03 18:07:00,
2013-12-03 10:12:00,62.2,54.1,29.93,SSW,205,8.0,17.0,75,0.00,,,0.00,471.0,meteohub,2013-12-03 18:12:00,
2013-12-03 10:17:00,62.2,53.8,29.94,South,190,7.0,17.0,74,0.00,,,0.00,478.0,meteohub,2013-12-03 18:17:00,
2013-12-03 10:22:00,62.6,54.1,29.93,SE,146,7.0,17.0,74,0.00,,,0.00,489.0,meteohub,2013-12-03 18:22:00,
2013-12-03 10:27:00,62.6,53.8,29.93,SSW,194,8.0,11.0,73,0.00,,,0.00,489.0,meteohub,2013-12-03 18:27:00,
2013-12-03 10:32:00,62.4,53.6,29.92,SSE,162,4.0,12.0,73,0.00,,,0.00,499.0,meteohub,2013-12-03 18:32:00,
2013-12-03 10:37:00,62.6,53.8,29.92,South,191,8.0,13.0,73,0.00,,,0.00,506.0,meteohub,2013-12-03 18:37:00,
2013-12-03 10:42:00,63.0,54.1,29.92,South,182,8.0,13.0,73,0.00,,,0.00,510.0,meteohub,2013-12-03 18:42:00,
2013-12-03 10:47:00,63.3,54.5,29.92,South,171,3.0,14.0,73,0.00,,,0.00,513.0,meteohub,2013-12-03 18:47:00,
2013-12-03 10:52:00,64.2,54.7,29.92,South,178,7.0,14.0,71,0.00,,,0.00,499.0,meteohub,2013-12-03 18:52:00,
2013-12-03 10:57:00,63.9,54.3,29.92,SW,229,3.0,14.0,71,0.00,,,0.00,513.0,meteohub,2013-12-03 18:57:00,
2013-12-03 11:02:00,63.3,53.8,29.92,SSW,199,10.0,12.0,71,0.00,,,0.00,520.0,meteohub,2013-12-03 19:02:00,
2013-12-03 11:07:00,63.5,54.0,29.91,SSW,204,12.0,12.0,71,0.00,,,0.00,508.0,meteohub,2013-12-03 19:07:00,
2013-12-03 11:12:00,63.0,53.4,29.91,SSW,197,10.0,13.0,71,0.00,,,0.00,517.0,meteohub,2013-12-03 19:12:00,
2013-12-03 11:17:00,62.6,53.1,29.91,SSW,200,5.0,13.0,71,0.00,,,0.00,536.0,meteohub,2013-12-03 19:17:00,
2013-12-03 11:22:00,62.4,52.9,29.91,South,182,8.0,13.0,71,0.00,,,0.00,478.0,meteohub,2013-12-03 19:22:00,
2013-12-03 11:27:00,62.6,53.4,29.90,SSW,198,11.0,14.0,72,0.00,,,0.00,489.0,meteohub,2013-12-03 19:27:00,
2013-12-03 11:32:00,62.6,53.4,29.90,South,187,3.0,14.0,72,0.00,,,0.00,592.0,meteohub,2013-12-03 19:32:00,
2013-12-03 11:37:00,62.8,53.6,29.90,SSW,192,7.0,12.0,72,0.00,,,0.00,592.0,meteohub,2013-12-03 19:37:00,
2013-12-03 11:42:00,63.0,53.8,29.90,SW,215,4.0,12.0,72,0.00,,,0.00,288.0,meteohub,2013-12-03 19:42:00,
2013-12-03 11:47:00,62.4,52.9,29.89,SSW,209,5.0,12.0,71,0.00,,,0.00,559.0,meteohub,2013-12-03 19:47:00,
2013-12-03 11:52:00,62.4,53.2,29.89,SSW,202,8.0,12.0,72,0.00,,,0.00,383.0,meteohub,2013-12-03 19:52:00,
2013-12-03 11:57:00,62.2,53.1,29.89,SW,219,8.0,11.0,72,0.00,,,0.00,436.0,meteohub,2013-12-03 19:57:00,
2013-12-03 12:02:00,62.4,53.6,29.88,SSW,192,6.0,11.0,73,0.00,,,0.00,526.0,meteohub,2013-12-03 20:02:00,
2013-12-03 12:07:00,62.8,54.0,29.88,SSW,211,9.0,11.0,73,0.00,,,0.00,547.0,meteohub,2013-12-03 20:07:00,
2013-12-03 12:12:00,62.8,54.0,29.88,SSW,205,8.0,11.0,73,0.00,,,0.00,517.0,meteohub,2013-12-03 20:12:00,
2013-12-03 12:17:00,63.1,54.3,29.88,South,191,12.0,12.0,73,0.00,,,0.00,575.0,meteohub,2013-12-03 20:17:00,
2013-12-03 12:22:00,63.1,54.0,29.87,South,190,8.0,12.0,72,0.00,,,0.00,606.0,meteohub,2013-12-03 20:22:00,
2013-12-03 12:27:00,63.1,54.0,29.87,SW,221,4.0,12.0,72,0.00,,,0.00,429.0,meteohub,2013-12-03 20:27:00,
2013-12-03 12:32:00,63.0,53.8,29.86,SW,221,6.0,12.0,72,0.00,,,0.00,425.0,meteohub,2013-12-03 20:32:00,
2013-12-03 12:37:00,63.0,54.1,29.86,SSW,194,8.0,12.0,73,0.00,,,0.00,527.0,meteohub,2013-12-03 20:37:00,
2013-12-03 12:42:00,63.1,54.0,29.86,South,171,6.0,13.0,72,0.00,,,0.00,494.0,meteohub,2013-12-03 20:42:00,
2013-12-03 12:47:00,62.8,53.6,29.86,South,191,8.0,13.0,72,0.00,,,0.00,492.0,meteohub,2013-12-03 20:47:00,
2013-12-03 12:52:00,62.8,53.6,29.86,SSW,192,10.0,13.0,72,0.00,,,0.00,485.0,meteohub,2013-12-03 20:52:00,
2013-12-03 12:57:00,62.8,53.6,29.86,SSW,192,7.0,13.0,72,0.00,,,0.00,482.0,meteohub,2013-12-03 20:57:00,
2013-12-03 13:02:00,62.4,52.9,29.85,South,175,6.0,12.0,71,0.00,,,0.00,480.0,meteohub,2013-12-03 21:02:00,
2013-12-03 13:07:00,62.4,53.2,29.86,South,182,3.0,11.0,72,0.00,,,0.00,473.0,meteohub,2013-12-03 21:07:00,
2013-12-03 13:12:00,62.4,53.2,29.85,SSW,205,7.0,10.0,72,0.00,,,0.00,461.0,meteohub,2013-12-03 21:12:00,
2013-12-03 13:17:00,62.4,53.2,29.85,SSW,197,4.0,10.0,72,0.00,,,0.00,459.0,meteohub,2013-12-03 21:17:00,
2013-12-03 13:22:00,62.6,53.4,29.85,South,188,6.0,10.0,72,0.00,,,0.00,443.0,meteohub,2013-12-03 21:22:00,
2013-12-03 13:27:00,62.8,53.6,29.84,SSE,148,6.0,10.0,72,0.00,,,0.00,429.0,meteohub,2013-12-03 21:27:00,
2013-12-03 13:32:00,63.0,53.8,29.84,SSW,212,6.0,10.0,72,0.00,,,0.00,429.0,meteohub,2013-12-03 21:32:00,
2013-12-03 13:37:00,62.6,53.4,29.84,South,185,5.0,9.0,72,0.00,,,0.00,415.0,meteohub,2013-12-03 21:37:00,
2013-12-03 13:42:00,62.4,53.6,29.84,WSW,243,7.0,9.0,73,0.00,,,0.00,410.0,meteohub,2013-12-03 21:42:00,
2013-12-03 13:47:00,62.2,53.8,29.84,South,188,8.0,9.0,74,0.00,,,0.00,385.0,meteohub,2013-12-03 21:47:00,
2013-12-03 13:52:00,62.1,53.6,29.84,SW,221,1.0,9.0,74,0.00,,,0.00,397.0,meteohub,2013-12-03 21:52:00,
2013-12-03 13:57:00,62.1,54.0,29.84,SSW,211,7.0,9.0,75,0.00,,,0.00,364.0,meteohub,2013-12-03 21:57:00,
2013-12-03 14:02:00,62.1,54.0,29.84,SW,215,8.0,9.0,75,0.00,,,0.00,353.0,meteohub,2013-12-03 22:02:00,
2013-12-03 14:07:00,62.1,54.0,29.84,SW,234,5.0,8.0,75,0.00,,,0.00,316.0,meteohub,2013-12-03 22:07:00,
2013-12-03 14:12:00,61.5,53.6,29.84,SSW,200,6.0,8.0,75,0.00,,,0.00,339.0,meteohub,2013-12-03 22:12:00,
2013-12-03 14:17:00,61.3,53.1,29.84,South,182,5.0,8.0,74,0.00,,,0.00,272.0,meteohub,2013-12-03 22:17:00,
2013-12-03 14:22:00,61.2,53.2,29.85,SW,227,2.0,8.0,75,0.00,,,0.00,322.0,meteohub,2013-12-03 22:22:00,
2013-12-03 14:27:00,61.0,53.1,29.84,SW,236,2.0,8.0,75,0.00,,,0.00,251.0,meteohub,2013-12-03 22:27:00,
2013-12-03 14:32:00,60.6,53.1,29.84,SW,219,1.0,8.0,76,0.00,,,0.00,309.0,meteohub,2013-12-03 22:32:00,
2013-12-03 14:37:00,60.4,52.9,29.84,SW,223,0.0,7.0,76,0.00,,,0.00,322.0,meteohub,2013-12-03 22:37:00,
2013-12-03 14:42:00,60.6,53.1,29.84,SSE,166,1.0,6.0,76,0.00,,,0.00,294.0,meteohub,2013-12-03 22:42:00,
2013-12-03 14:47:00,60.6,52.7,29.84,WNW,299,4.0,7.0,75,0.00,,,0.00,276.0,meteohub,2013-12-03 22:47:00,
2013-12-03 14:52:00,60.4,52.5,29.84,SSW,203,4.0,7.0,75,0.00,,,0.00,262.0,meteohub,2013-12-03 22:52:00,
2013-12-03 14:57:00,60.4,52.9,29.83,SSW,202,7.0,7.0,76,0.00,,,0.00,251.0,meteohub,2013-12-03 22:57:00,
2013-12-03 15:02:00,60.6,53.1,29.83,WSW,246,2.0,7.0,76,0.00,,,0.00,236.0,meteohub,2013-12-03 23:02:00,
2013-12-03 15:07:00,60.6,53.4,29.83,WSW,242,2.0,7.0,77,0.00,,,0.00,214.0,meteohub,2013-12-03 23:07:00,
2013-12-03 15:12:00,60.4,53.2,29.83,SSW,202,2.0,7.0,77,0.00,,,0.00,206.0,meteohub,2013-12-03 23:12:00,
2013-12-03 15:17:00,60.4,53.2,29.83,WSW,237,1.0,5.0,77,0.00,,,0.00,199.0,meteohub,2013-12-03 23:17:00,
2013-12-03 15:22:00,60.4,53.6,29.84,SW,228,2.0,6.0,78,0.00,,,0.00,172.0,meteohub,2013-12-03 23:22:00,
2013-12-03 15:27:00,60.1,53.2,29.84,SW,217,4.0,6.0,78,0.00,,,0.00,127.0,meteohub,2013-12-03 23:27:00,
2013-12-03 15:32:00,59.7,53.2,29.84,SW,233,3.0,6.0,79,0.00,,,0.00,86.0,meteohub,2013-12-03 23:32:00,
2013-12-03 15:37:00,59.5,53.4,29.83,South,188,0.0,6.0,80,0.00,,,0.00,76.0,meteohub,2013-12-03 23:37:00,
2013-12-03 15:42:00,59.4,53.2,29.83,SSW,200,2.0,6.0,80,0.00,,,0.00,62.0,meteohub,2013-12-03 23:42:00,
2013-12-03 15:47:00,59.4,53.2,29.83,SSW,194,2.0,4.0,80,0.00,,,0.00,58.0,meteohub,2013-12-03 23:47:00,
2013-12-03 15:52:00,59.2,53.4,29.83,WNW,293,3.0,4.0,81,0.00,,,0.00,47.0,meteohub,2013-12-03 23:52:00,
2013-12-03 15:57:00,59.0,53.2,29.83,NNW,329,0.0,4.0,81,0.00,,,0.00,42.0,meteohub,2013-12-03 23:57:00,
2013-12-03 16:02:00,58.8,53.1,29.83,NNW,338,0.0,5.0,81,0.00,,,0.00,47.0,meteohub,2013-12-04 00:02:00,
2013-12-03 16:07:00,58.8,53.1,29.84,WNW,293,1.0,5.0,81,0.00,,,0.00,40.0,meteohub,2013-12-04 00:07:00,
2013-12-03 16:12:00,58.6,52.9,29.84,NW,311,0.0,5.0,81,0.00,,,0.00,21.0,meteohub,2013-12-04 00:12:00,
2013-12-03 16:17:00,58.6,52.9,29.83,NW,319,2.0,3.0,81,0.00,,,0.00,14.0,meteohub,2013-12-04 00:17:00,
2013-12-03 16:22:00,58.6,52.9,29.83,SW,223,1.0,3.0,81,0.00,,,0.00,12.0,meteohub,2013-12-04 00:22:00,
2013-12-03 16:27:00,58.6,53.2,29.83,West,277,0.0,3.0,82,0.00,,,0.00,9.0,meteohub,2013-12-04 00:27:00,
2013-12-03 16:32:00,58.6,53.2,29.83,SE,146,0.0,3.0,82,0.00,,,0.00,7.0,meteohub,2013-12-04 00:32:00,
2013-12-03 16:37:00,58.6,53.2,29.83,West,281,1.0,3.0,82,0.00,,,0.00,5.0,meteohub,2013-12-04 00:37:00,
2013-12-03 16:42:00,58.5,53.1,29.83,North,0,0.0,6.0,82,0.00,,,0.00,0.0,meteohub,2013-12-04 00:42:00,
2013-12-03 16:47:00,58.5,53.1,29.83,WNW,299,0.0,6.0,82,0.00,,,0.00,0.0,meteohub,2013-12-04 00:47:00,
2013-12-03 16:52:00,58.3,52.5,29.83,NW,306,0.0,9.0,81,0.00,,,0.00,0.0,meteohub,2013-12-04 00:52:00,
2013-12-03 16:57:00,58.1,52.3,29.83,NW,310,5.0,10.0,81,0.00,,,0.00,0.0,meteohub,2013-12-04 00:57:00,
2013-12-03 17:02:00,57.7,52.0,29.82,NW,319,2.0,11.0,81,0.00,,,0.00,0.0,meteohub,2013-12-04 01:02:00,
2013-12-03 17:07:00,57.6,51.4,29.82,NW,311,7.0,11.0,80,0.00,,,0.00,0.0,meteohub,2013-12-04 01:07:00,
2013-12-03 17:12:00,57.4,51.3,29.82,WNW,285,0.0,12.0,80,0.00,,,0.00,0.0,meteohub,2013-12-04 01:12:00,
2013-12-03 17:17:00,57.2,51.1,29.82,North,355,1.0,12.0,80,0.00,,,0.00,0.0,meteohub,2013-12-04 01:17:00,
2013-12-03 17:22:00,57.2,51.1,29.82,WNW,302,2.0,12.0,80,0.00,,,0.00,0.0,meteohub,2013-12-04 01:22:00,
2013-12-03 17:27:00,57.0,50.9,29.81,WNW,289,9.0,9.0,80,0.00,,,0.00,0.0,meteohub,2013-12-04 01:27:00,
2013-12-03 17:32:00,57.0,50.9,29.81,NW,317,6.0,13.0,80,0.00,,,0.00,0.0,meteohub,2013-12-04 01:32:00,
2013-12-03 17:37:00,57.0,50.9,29.81,NW,309,9.0,13.0,80,0.00,,,0.00,0.0,meteohub,2013-12-04 01:37:00,
2013-12-03 17:42:00,57.0,50.9,29.81,NNE,17,8.0,18.0,80,0.00,,,0.00,0.0,meteohub,2013-12-04 01:42:00,
2013-12-03 17:47:00,57.0,50.9,29.81,NW,310,6.0,18.0,80,0.00,,,0.00,0.0,meteohub,2013-12-04 01:47:00,
2013-12-03 17:52:00,57.0,50.9,29.81,NNE,13,4.0,18.0,80,0.00,,,0.00,0.0,meteohub,2013-12-04 01:52:00,
2013-12-03 17:57:00,57.0,50.9,29.81,NW,310,12.0,16.0,80,0.00,,,0.00,0.0,meteohub,2013-12-04 01:57:00,
2013-12-03 18:02:00,57.0,50.9,29.81,WNW,292,6.0,14.0,80,0.00,,,0.00,0.0,meteohub,2013-12-04 02:02:00,
2013-12-03 18:07:00,57.2,51.1,29.81,NE,42,4.0,13.0,80,0.00,,,0.00,0.0,meteohub,2013-12-04 02:07:00,
2013-12-03 18:12:00,57.4,51.6,29.81,NNW,336,6.0,15.0,81,0.00,,,0.00,0.0,meteohub,2013-12-04 02:12:00,
2013-12-03 18:17:00,57.4,51.6,29.81,North,0,8.0,15.0,81,0.00,,,0.00,0.0,meteohub,2013-12-04 02:17:00,
2013-12-03 18:22:00,57.4,51.6,29.81,NW,325,9.0,15.0,81,0.00,,,0.00,0.0,meteohub,2013-12-04 02:22:00,
2013-12-03 18:27:00,57.4,51.6,29.81,NW,326,9.0,13.0,81,0.00,,,0.00,0.0,meteohub,2013-12-04 02:27:00,
2013-12-03 18:32:00,57.4,51.3,29.81,NW,304,8.0,14.0,80,0.00,,,0.00,0.0,meteohub,2013-12-04 02:32:00,
2013-12-03 18:37:00,57.4,50.9,29.81,East,92,2.0,14.0,79,0.00,,,0.00,0.0,meteohub,2013-12-04 02:37:00,
2013-12-03 18:42:00,57.4,50.9,29.81,WNW,297,6.0,13.0,79,0.00,,,0.00,0.0,meteohub,2013-12-04 02:42:00,
2013-12-03 18:47:00,57.4,50.5,29.81,NW,311,2.0,11.0,78,0.00,,,0.00,0.0,meteohub,2013-12-04 02:47:00,
2013-12-03 18:52:00,57.0,49.5,29.82,NW,311,3.0,10.0,76,0.00,,,0.00,0.0,meteohub,2013-12-04 02:52:00,
2013-12-03 18:57:00,57.0,49.1,29.81,NW,320,2.0,11.0,75,0.00,,,0.00,0.0,meteohub,2013-12-04 02:57:00,
2013-12-03 19:02:00,56.8,48.6,29.82,NW,310,8.0,11.0,74,0.00,,,0.00,0.0,meteohub,2013-12-04 03:02:00,
2013-12-03 19:07:00,56.7,47.7,29.82,ENE,57,2.0,11.0,72,0.00,,,0.00,0.0,meteohub,2013-12-04 03:07:00,
2013-12-03 19:12:00,56.5,47.1,29.81,ENE,76,5.0,11.0,71,0.00,,,0.00,0.0,meteohub,2013-12-04 03:12:00,
2013-12-03 19:17:00,56.1,46.0,29.82,North,350,2.0,11.0,69,0.00,,,0.00,0.0,meteohub,2013-12-04 03:17:00,
2013-12-03 19:22:00,55.9,45.5,29.82,East,99,11.0,11.0,68,0.00,,,0.00,0.0,meteohub,2013-12-04 03:22:00,
2013-12-03 19:27:00,55.9,45.1,29.82,NNW,340,0.0,13.0,67,0.00,,,0.00,0.0,meteohub,2013-12-04 03:27:00,
2013-12-03 19:32:00,55.8,44.6,29.83,North,355,11.0,13.0,66,0.00,,,0.00,0.0,meteohub,2013-12-04 03:32:00,
2013-12-03 19:37:00,55.8,44.6,29.83,NW,309,6.0,13.0,66,0.00,,,0.00,0.0,meteohub,2013-12-04 03:37:00,
2013-12-03 19:42:00,55.6,44.4,29.82,SE,130,1.0,14.0,66,0.00,,,0.00,0.0,meteohub,2013-12-04 03:42:00,
2013-12-03 19:47:00,55.4,44.6,29.82,North,355,3.0,14.0,67,0.00,,,0.00,0.0,meteohub,2013-12-04 03:47:00,
2013-12-03 19:52:00,55.0,44.2,29.82,East,84,10.0,16.0,67,0.00,,,0.00,0.0,meteohub,2013-12-04 03:52:00,
2013-12-03 19:57:00,54.9,44.1,29.82,NW,315,7.0,16.0,67,0.00,,,0.00,0.0,meteohub,2013-12-04 03:57:00,
2013-12-03 20:02:00,54.7,43.9,29.83,WNW,296,6.0,16.0,67,0.00,,,0.00,0.0,meteohub,2013-12-04 04:02:00,
2013-12-03 20:07:00,54.3,43.5,29.82,NW,316,13.0,15.0,67,0.00,,,0.00,0.0,meteohub,2013-12-04 04:07:00,
2013-12-03 20:12:00,54.1,43.3,29.83,NE,37,6.0,13.0,67,0.00,,,0.00,0.0,meteohub,2013-12-04 04:12:00,
2013-12-03 20:17:00,54.0,43.3,29.83,NE,38,12.0,15.0,67,0.00,,,0.00,0.0,meteohub,2013-12-04 04:17:00,
2013-12-03 20:22:00,53.6,43.0,29.83,NW,323,4.0,15.0,67,0.00,,,0.00,0.0,meteohub,2013-12-04 04:22:00,
2013-12-03 20:27:00,53.4,43.2,29.83,NNW,340,6.0,15.0,68,0.00,,,0.00,0.0,meteohub,2013-12-04 04:27:00,
2013-12-03 20:32:00,53.2,43.0,29.83,NNW,346,2.0,15.0,68,0.00,,,0.00,0.0,meteohub,2013-12-04 04:32:00,
2013-12-03 20:37:00,53.1,42.8,29.84,NE,42,1.0,14.0,68,0.00,,,0.00,0.0,meteohub,2013-12-04 04:37:00,
2013-12-03 20:42:00,53.1,42.8,29.84,NW,313,5.0,14.0,68,0.00,,,0.00,0.0,meteohub,2013-12-04 04:42:00,
2013-12-03 20:47:00,52.9,43.0,29.84,WNW,297,3.0,14.0,69,0.00,,,0.00,0.0,meteohub,2013-12-04 04:47:00,
2013-12-03 20:52:00,52.7,42.8,29.84,NE,36,2.0,11.0,69,0.00,,,0.00,0.0,meteohub,2013-12-04 04:52:00,
2013-12-03 20:57:00,52.5,43.0,29.85,SE,137,0.0,13.0,70,0.00,,,0.00,0.0,meteohub,2013-12-04 04:57:00,
2013-12-03 21:01:00,52.3,42.8,29.85,NW,317,4.0,13.0,70,0.00,,,0.00,0.0,meteohub,2013-12-04 05:01:00,
2013-12-03 21:02:00,52.3,42.8,29.85,NW,319,5.0,13.0,70,0.00,,,0.00,0.0,meteohub,2013-12-04 05:02:00,
2013-12-03 21:03:00,52.3,42.8,29.85,NW,320,3.0,13.0,70,0.00,,,0.00,0.0,meteohub,2013-12-04 05:03:00,
2013-12-03 21:04:00,52.3,42.8,29.85,SSW,211,3.0,13.0,70,0.00,,,0.00,0.0,meteohub,2013-12-04 05:04:00,
2013-12-03 21:05:00,52.3,42.8,29.85,North,355,4.0,13.0,70,0.00,,,0.00,0.0,meteohub,2013-12-04 05:05:00,
2013-12-03 21:10:00,52.2,43.0,29.85,WNW,283,5.0,7.0,71,0.00,,,0.00,0.0,meteohub,2013-12-04 05:10:00,
2013-12-03 21:15:00,52.0,42.8,29.85,NW,317,4.0,7.0,71,0.00,,,0.00,0.0,meteohub,2013-12-04 05:15:00,
2013-12-03 21:20:00,52.0,42.8,29.85,WNW,296,4.0,9.0,71,0.00,,,0.00,0.0,meteohub,2013-12-04 05:20:00,
2013-12-03 21:25:00,52.0,43.2,29.85,NNW,343,3.0,9.0,72,0.00,,,0.00,0.0,meteohub,2013-12-04 05:25:00,
2013-12-03 21:30:00,51.8,43.3,29.85,North,0,4.0,10.0,73,0.00,,,0.00,0.0,meteohub,2013-12-04 05:30:00,
2013-12-03 21:35:00,52.0,43.9,29.85,West,280,7.0,16.0,74,0.00,,,0.00,0.0,meteohub,2013-12-04 05:35:00,
2013-12-03 21:40:00,52.2,44.1,29.85,WNW,297,5.0,17.0,74,0.00,,,0.00,0.0,meteohub,2013-12-04 05:40:00,
2013-12-03 21:45:00,52.2,44.4,29.85,NW,313,11.0,17.0,75,0.00,,,0.00,0.0,meteohub,2013-12-04 05:45:00,
2013-12-03 21:51:00,52.2,44.8,29.85,NNW,336,9.0,17.0,76,0.00,,,0.00,0.0,meteohub,2013-12-04 05:51:00,
2013-12-03 21:56:00,52.2,44.8,29.85,NNW,341,4.0,16.0,76,0.00,,,0.00,0.0,meteohub,2013-12-04 05:56:00,
2013-12-03 22:01:00,52.2,44.8,29.85,West,275,5.0,16.0,76,0.00,,,0.00,0.0,meteohub,2013-12-04 06:01:00,
2013-12-03 22:06:00,52.2,45.1,29.85,NNW,331,2.0,18.0,77,0.00,,,0.00,0.0,meteohub,2013-12-04 06:06:00,
2013-12-03 22:11:00,52.0,45.0,29.85,West,280,5.0,19.0,77,0.00,,,0.00,0.0,meteohub,2013-12-04 06:11:00,
2013-12-03 22:16:00,52.0,45.0,29.85,NNW,329,8.0,19.0,77,0.00,,,0.00,0.0,meteohub,2013-12-04 06:16:00,
2013-12-03 22:21:00,52.0,45.0,29.85,NE,35,3.0,17.0,77,0.00,,,0.00,0.0,meteohub,2013-12-04 06:21:00,
2013-12-03 22:26:00,52.0,45.0,29.85,NW,307,14.0,14.0,77,0.00,,,0.00,0.0,meteohub,2013-12-04 06:26:00,
2013-12-03 22:31:00,52.0,45.0,29.85,NNW,327,1.0,15.0,77,0.00,,,0.00,0.0,meteohub,2013-12-04 06:31:00,
2013-12-03 22:36:00,52.0,44.6,29.85,North,10,2.0,15.0,76,0.00,,,0.00,0.0,meteohub,2013-12-04 06:36:00,
2013-12-03 22:41:00,52.0,44.6,29.85,NW,319,4.0,15.0,76,0.00,,,0.00,0.0,meteohub,2013-12-04 06:41:00,
2013-12-03 22:46:00,51.8,44.1,29.85,NW,314,9.0,15.0,75,0.00,,,0.00,0.0,meteohub,2013-12-04 06:46:00,
2013-12-03 22:51:00,51.8,43.7,29.85,NE,54,7.0,16.0,74,0.00,,,0.00,0.0,meteohub,2013-12-04 06:51:00,
2013-12-03 22:56:00,51.6,43.5,29.85,NNW,340,12.0,16.0,74,0.00,,,0.00,0.0,meteohub,2013-12-04 06:56:00,
2013-12-03 23:01:00,51.6,43.5,29.85,NNW,340,5.0,16.0,74,0.00,,,0.00,0.0,meteohub,2013-12-04 07:01:00,
2013-12-03 23:06:00,51.8,43.7,29.85,NNW,340,6.0,16.0,74,0.00,,,0.00,0.0,meteohub,2013-12-04 07:06:00,
2013-12-03 23:11:00,51.8,43.3,29.85,NW,304,8.0,16.0,73,0.00,,,0.00,0.0,meteohub,2013-12-04 07:11:00,
2013-12-03 23:16:00,51.8,43.3,29.85,NNW,331,12.0,16.0,73,0.00,,,0.00,0.0,meteohub,2013-12-04 07:16:00,
2013-12-03 23:21:00,52.0,43.5,29.84,NNE,30,5.0,17.0,73,0.00,,,0.00,0.0,meteohub,2013-12-04 07:21:00,
2013-12-03 23:26:00,52.0,43.2,29.85,North,351,8.0,20.0,72,0.00,,,0.00,0.0,meteohub,2013-12-04 07:26:00,
2013-12-03 23:31:00,52.2,43.3,29.86,NNW,331,2.0,20.0,72,0.00,,,0.00,0.0,meteohub,2013-12-04 07:31:00,
2013-12-03 23:36:00,52.2,43.3,29.85,NNW,344,6.0,20.0,72,0.00,,,0.00,0.0,meteohub,2013-12-04 07:36:00,
2013-12-03 23:41:00,52.2,43.0,29.84,North,355,12.0,16.0,71,0.00,,,0.00,0.0,meteohub,2013-12-04 07:41:00,
2013-12-03 23:46:00,52.2,43.3,29.85,NNE,18,8.0,20.0,72,0.00,,,0.00,0.0,meteohub,2013-12-04 07:46:00,
2013-12-03 23:51:00,52.2,43.0,29.84,NW,314,11.0,20.0,71,0.00,,,0.00,0.0,meteohub,2013-12-04 07:51:00,
2013-12-03 23:56:00,52.2,43.0,29.84,NW,313,10.0,20.0,71,0.00,,,0.00,0.0,meteohub,2013-12-04 07:56:00,